728  
ASUS41 KLWX 290511  
RWRLWX  
 
REGIONAL WEATHER ROUNDUP  
NATIONAL WEATHER SERVICE BALTIMORE MD/WASHINGTON DC  
100 AM EDT THU JUN 29 2017  
 
NOTE: "FAIR" INDICATES FEW OR NO CLOUDS BELOW 12,000 FEET  
WITH NO SIGNIFICANT WEATHER AND/OR S TO VISIBILITY
.  
TC=TEMPERATURE CELSIUS  
 
* =NON NWS SITE. STATION DOES NOT REPORT PRECIPITATION (E.G. RAIN,  
SNOW, ETC.), THUNDER, OR FOG.
 
 
DCZ001-MDZ009-015-VAZ040>042-051-053>054-290600-  
WASHINGTON METRO  
 
CITY SKY/WX TMP DP RH WIND PRES REMARKS
 
WASHINGTON NAT CLEAR 70 59 68 S14 30.16S  
DULLES MOCLDY 67 53 61 S7 30.15R  
ANDREWS AFB CLEAR 66 56 70 S8 30.15S  
FT BELVOIR CLEAR 67 56 70 SE7 30.15S  
QUANTICO CLEAR 72 60 66 SW14G20 30.17S  
COLLEGE PARK* CLEAR 69 56 62 S3 30.15F  
LEESBURG* CLEAR 68 57 68 S8 30.16S  
MANASSAS* CLEAR 60 54 80 CALM 30.16R  
GAITHERSBURG* CLEAR 67 56 67 S6 30.17R  
 

 
 
MDZ006>007-011-014-290600-  
BALTIMORE METRO  
 
CITY SKY/WX TMP DP RH WIND PRES REMARKS
 
BWI AIRPORT MOCLDY 66 56 70 S6 30.15S  
MD SCIENCE CTR N/A 71 56 58 MISG 30.16R  
MARTIN STATE CLEAR 70 59 68 S5 30.16S  
ANNAPOLIS PTCLDY 67 57 70 S9 30.15S  
FORT MEADE* CLEAR 57 55 94 CALM 30.18S  
 

 
 
MDZ012-015-019>023-290600-  
MARYLAND EASTERN SHORE  
 
CITY SKY/WX TMP DP RH WIND PRES REMARKS
 
OCEAN CITY CLEAR 67 59 75 SW6 30.19F  
SALISBURY CLEAR 61 57 87 S7 30.19S  
BAY BRIDGE AP* PTCLDY 72 59 64 S8 30.16R  
CAMBRIDGE* CLEAR 64 57 77 CALM 30.18R  
EASTON* CLEAR 68 56 67 S5 30.21R  
 

 
 
MDZ017>025-290600-  
SOUTHERN MARYLAND  
 
CITY SKY/WX TMP DP RH WIND PRES REMARKS
 
PATUXENT RIVER CLOUDY 70 57 63 S6 30.17S  
ST INIGOES PTCLDY 71 59 65 S7 30.16F  
LEONARDTOWN* CLOUDY 68 55 64 CALM 30.19S  
 

 
 
MDZ003>005-290600-  
NORTH CENTRAL MARYLAND  
 
CITY SKY/WX TMP DP RH WIND PRES REMARKS
 
FREDERICK* CLEAR 64 52 63 S3 30.18R  
HAGERSTOWN APT CLEAR 67 54 63 S8 30.12S  
WESTMINSTER* CLEAR 66 55 68 S6 30.15S  
 

 
 
MDZ501>502-290600-  
WESTERN MARYLAND  
 
CITY SKY/WX TMP DP RH WIND PRES REMARKS
 
OAKLAND* CLOUDY 55 45 67 S6 30.05S  
CUMBERLAND* CLOUDY 61 55 82 CALM 30.17R  
 

 
 
VAZ025>031-290600-  
SHENANDOAH VALLEY  
 
CITY SKY/WX TMP DP RH WIND PRES REMARKS
 
WINCHESTER* CLEAR 61 52 72 CALM 30.14S  
FRONT ROYAL* CLEAR 63 54 72 CALM 30.13S  
LURAY* PTCLDY 63 54 72 SW7 30.15F  
NEW MARKET* CLEAR 59 53 82 SW3 30.15F  
STAUNTON* CLEAR 56 52 87 W3 30.20S  
WAYNESBORO* CLOUDY 64 54 69 S3 30.19S  
 

 
 
WVZ021-048>050-054>055-290600-  
EASTERN WEST VIRGINIA PANHANDLE  
 
CITY SKY/WX TMP DP RH WIND PRES REMARKS
 
MARTINSBURG CLEAR 62 53 72 S3 30.12S  
PETERSBURG* CLOUDY 56 55 94 CALM 30.15R  
 

 
 
VAZ036>039-050-290600-  
CENTRAL FOOTHILLS  
 
CITY SKY/WX TMP DP RH WIND PRES REMARKS
 
CHARLOTTESVILL CLOUDY 65 57 75 W3 30.17R  
CULPEPER* CLEAR 59 56 90 CALM 30.17S  
ORANGE* CLOUDY 59 54 82 CALM 30.17S  
GORDONSVILLE* PTCLDY 58 56 93 CALM 30.16F  
WARRENTON* CLEAR 61 52 71 CALM 30.16R  
 

 
 
VAZ055>057-290600-  
NORTH AND CENTRAL PIEDMONT  
 
CITY SKY/WX TMP DP RH WIND PRES REMARKS
 
FREDERICKSBRG* PTCLDY 67 58 72 S8 30.16S  
STAFFORD* PTCLDY 62 58 87 S3 30.20S  
 

 
 
NCZ024-NYZ072-PAZ021-071-VAZ022-071-290600-  
OTHER REGIONAL OBSERVATIONS  
 
CITY SKY/WX TMP DP RH WIND PRES REMARKS
 
NEW YORK CITY MOCLDY 72 51 47 SW8 30.15S  
PHILADELPHIA MOCLDY 69 57 65 S9 30.16R  
PITTSBURGH MOCLDY 63 53 70 S3 30.09R  
ROANOKE CLOUDY 67 56 67 E5 30.21S  
RICHMOND CLOUDY 64 58 80 S5 30.18F  
RALEIGH PTCLDY 67 57 70 SE7 30.20F  
 

 
 
ANZ530>537-290600-  
MARINE OBSERVATIONS  
 
STATION/POSITION TIME TEMP WIND PRES
 
AIR SEA DIR/SP/G  
(UTC) (F) (DEG/KT/KT) (MB)  
THOMAS PT LIGHT 0500 72 76 200/ 21/ 23 N/A  
BALT KEY BRIDGE 0448 69 200/ 8/ 12 1020.5R  
COVE POINT 0448 71 210/ 12/ 14 1022.2F  
LEWISETTA 0448 68 79 210/ 8/ 10 1021.7F  
SOLOMONS ISLAND 0448 71 78 200/ 10/ 12 N/A  
PINEY POINT 0442 210/ 14/ 17 N/A  
 

 
 
 
 
CLICK HERE TO GO TO PREVIOUS BULLETINS.

The Nexlab VA Page
The Nexlab MD Page
The Nexlab WV Page Main Text Page